Miscellaneous Local Product
Issued by NWS North Platte, NE

Home | Current Version | Previous Version | Text Only | Print | Product List | Glossary On
Versions: 1 2 3 4 5 6 7 8 9 10 11 12 13 14 15 16 17 18 19 20 21 22 23 24 25 26 27 28 29 30 31 32 33 34 35 36 37 38 39 40 41 42 43 44 45 46 47 48 49 50
000
AXUS43 KLBF 061310
MISLBF


WESTERN AND NORTH CENTRAL NEBRASKA HOURLY WEATHER ROUNDUP
NATIONAL WEATHER SERVICE NORTH PLATTE NE
700 AM CST FRI MAR 06 2015

***STATIONS NOT REPORTING VARIABLES SUCH AS SKY/WEATHER OR
PRESSURE ARE PROVIDED BY THE NEBRASKA DEPARTMENT OF
ROADS...RAWS...AND APRS NETWORKS...AND ARE NOT UNDER
NATIONAL WEATHER SERVICE QUALITY CONTROL***

...OBSERVATIONS IN AND NEAR THE EASTERN PANHANDLE OF NEBRASKA...

CITY           SKY/WX    TMP DP  RH WIND       PRES   REMARKS
PINE RIDGE     MOCLDY    32  21  64 W5        30.17R WCI  27
CHADRON        MOCLDY    30  23  75 SW8       30.19R WCI  22
ALLIANCE       PTCLDY    23  18  81 W12       30.18R WCI  12
SIDNEY         CLEAR     29  18  63 W13       30.22R WCI  19
WHITECLAY        N/A     35  19  52 W10         N/A  WCI  27
CRESCENT LAKE    N/A     27  17  64 W6          N/A  WCI  21
LISCO            N/A     24  18  77 SW5         N/A  WCI  18
BIG SPRINGS      N/A     24  20  84 W9          N/A  WCI  14
LEWELLEN         N/A     22  19  89 W3          N/A
$$

...OBSERVATIONS IN NORTH CENTRAL NEBRASKA...

CITY           SKY/WX    TMP DP  RH WIND       PRES   REMARKS
VALENTINE      PTCLDY    24  18  77 SW9       30.14S WCI  14
THEDFORD       CLEAR     23  17  80 W3        30.16F
AINSWORTH      PTCLDY    26  19  72 W6        30.14S WCI  20
O`NEILL        CLEAR     25  20  79 W7        30.14S WCI  17
ORD            CLEAR     15   9  76 NW3       30.18R
BROKEN BOW     CLEAR     30  16  56 N3        30.18R
BROWNLEE         N/A     28  17  64 W8          N/A  WCI  20
VALENTINE NWR    N/A     26  16  64 W3          N/A
SPRINGVIEW       N/A     18  16  90 CALM        N/A
BREWSTER         N/A     26  20  76 W3          N/A
ROSE             N/A     29  24  82 S5          N/A  WCI  24
NEWPORT          N/A     30  25  80 W8          N/A  WCI  23
SARGENT          N/A     22  15  75 CALM        N/A
COMSTOCK         N/A     30  19  63 W6          N/A  WCI  24
EWING            N/A     23  17  77 W3          N/A
$$

...OBSERVATIONS IN SOUTHWEST NEBRASKA AND FAR NORTHEAST COLORADO...

CITY           SKY/WX    TMP DP  RH WIND       PRES   REMARKS
WRAY           FAIR      23  20  87 W7        30.25S WCI  15
HOLYOKE        FAIR      27  19  74 W10       30.24S WCI  17
IMPERIAL         N/A     27  17  66 W12       30.23S WCI  17
OGALLALA       CLEAR     21  18  88 W7        30.23R WCI  13
NORTH PLATTE   CLEAR     15  12  88 NW7       30.21S WCI   5
MCCOOK         CLEAR     24  17  74 W13       30.25S WCI  12
LEXINGTON      CLEAR     17  13  83 NW6       30.22S WCI   9
PAXTON           N/A     24  19  81 W3          N/A
BRADY            N/A     20  15  80 CALM        N/A
GOTHENBURG       N/A     23  17  77 W3          N/A
CALLAWAY         N/A     27  18  68 NW12        N/A  WCI  17
$$

...NORTH PLATTE AREA...

CITY           SKY/WX    TMP DP  RH WIND       PRES   REMARKS
AIRPORT        CLEAR     15  12  88 NW7       30.21S WCI   5
DOWNTOWN         N/A     22  17  82 CALM        N/A
$$

...SOME WEATHER OBSERVATIONS FROM AROUND THE REGION...

CITY           SKY/WX    TMP DP  RH WIND       PRES   REMARKS
DENVER         PTCLDY    25  11  55 SW12      30.25R WCI  14
LARAMIE        PTCLDY    25  11  55 W17       30.25S WCI  12
CHEYENNE       PTCLDY    32  12  43 NW9       30.23R WCI  24
SCOTTSBLUFF    CLEAR     25  19  78 N5        30.22R WCI  19
RAPID CITY     CLEAR     27  15  61 W6        30.12R WCI  20
PIERRE         PTCLDY    25  17  72 W10       30.09S WCI  15
WINNER         MOCLDY    31  17  56 SW9       30.11S WCI  23
SIOUX FALLS    PTCLDY    17   9  70 W3        30.09R
OMAHA          PTCLDY    20  14  77 S9        30.20S WCI   9
GRAND ISLAND   CLEAR     22  14  71 W8        30.20S WCI  12
KANSAS CITY    PTCLDY    29  18  63 SW17      30.28F WCI  17
WICHITA        CLEAR     23  19  85 S9        30.36F WCI  13
HAYS           CLEAR     23  10  58 W7        30.28R WCI  15
LIBERAL        CLEAR     23  18  80 SW6       30.32S WCI  16
GOODLAND       CLEAR     27  19  72 W10       30.26R WCI  17
$$



USA.gov is the U.S. government's official web portal to all federal, state and local government web resources and services.